User: anonymous   Login
Location: Unspecified
(0.0000°N, 0.0000°E)
Time: 05:25:04
(UTC+00:00)
Language:

OPTUS D3 - Orbit

View from above orbital plane
View from above orbital plane
View from above satellite
View from above satellite

Ground track
Ground track

The orbit data is extracted from the following two-line orbital elements,

1 35756U 09044B   17083.85117716 -.00000161 +00000-0 +00000-0 0  9997
2 35756 000.0109 062.5933 0004144 303.1294 279.2150 01.00269321027820
Epoch (UTC): 24 March 2017 20:25:41
Eccentricity: 0.0004144
inclination: 0.0109°
perigee height: 35769 km
apogee height: 35804 km
right ascension of ascending node: 62.5933°
argument of perigee: 303.1294°
revolutions per day: 1.00269321
mean anomaly at epoch: 279.2150°
orbit number at epoch: 2782

The dashed part of the orbit path shows where the satellite is in the earth's shadow,  

DLR